Location: Larrial
(48.2758°N, 4.5331°W)
Time: 21:55:54
(UTC+00:00)

Aureole 1 Rocket - Pass Details

Date: 09 April 2020
Orbit: 379 x 1379 km, 73.9° (Epoch: 29 May)

Event Time Altitude Azimuth Distance (km) Brightness Sun altitude
Rises 20:17:28 0° 208° (SSW) 4,161 7.3 -12.8°
Reaches altitude 10° 20:20:29 10° 210° (SSW) 3,078 6.6 -13.2°
Maximum altitude 20:27:43 71° 294° (WNW) 1,030 4.3 -14.2°
Drops below altitude 10° 20:33:17 10° 19° (NNE) 2,393 6.2 -15.0°
Sets 20:35:24 0° 22° (NNE) 3,186 6.8 -15.3°
